Home   Weather   Santiago de Cuba   Past weeks

Flag for Cuba Past Weather in Santiago de Cuba, Cuba — Yesterday and Last 2 Weeks

Now
77 °F

Passing clouds.


Feels Like: 78 °F
Forecast: 77 / 90 °F
Wind: 5 mph from North

Location: Santiago De Cuba - Oriente

Current Time: Jul 25, 2017 at 2:53:09 am

Latest Report: Jul 25, 2017 at 1:50 am


Visibility: 6 mi

Pressure: 30.04 "Hg

Humidity: 83%

Dew Point: 72 °F

Location of Santiago de CubaLocation

Past Weather in Santiago de Cuba — Graph

°F

Santiago de Cuba Temperature Yesterday

Maximum temperature yesterday: 90 °F (at 12:52 pm)
Minimum temperature yesterday: 77 °F (at 3:51 am)
Average temperature yesterday: 83 °F

High & Low Weather Summary for the Past Weeks

 TemperatureHumidityPressure
High91 °F (Jul 21, 11:51 am)100% (Jul 12, 12:50 am)30.09 "Hg (Jul 12, 12:50 am)
Low72 °F (Jul 16, 4:50 am)38% (Jul 21, 11:51 am)29.95 "Hg (Jul 10, 4:52 pm)
Average82 °F73%30.02 "Hg
* Reported Jul 10 12:50 am — Jul 25 12:50 am, Santiago de Cuba. Weather by CustomWeather, © 2017

Note: Actual official high and low records may vary slightly from our data, if they occured in-between our weather recording intervals... More about our weather records

Advertising

Santiago de Cuba Weather History for the Previous 24 Hours

Scroll right to see more
 ConditionsComfort  
Time TempWeatherWind HumidityBarometerVisibility
12:50 am
Tue, Jul 25
79 °FPassing clouds.5 mph79%30.07 "Hg6 mi
11:51 pm
Mon, Jul 24
79 °FPassing clouds.5 mph79%30.07 "Hg6 mi
10:51 pm81 °FPassing clouds.3 mph79%30.07 "Hg6 mi
9:53 pm82 °FPassing clouds.5 mph74%30.07 "Hg6 mi
8:51 pm84 °FPassing clouds.2 mph74%30.07 "Hg6 mi
7:51 pm84 °FPassing clouds.3 mph74%30.01 "Hg6 mi
6:50 pm86 °FScattered clouds.3 mph70%30.04 "Hg6 mi
5:50 pm86 °FScattered clouds.5 mph70%30.01 "Hg6 mi
4:51 pm86 °FScattered clouds.6 mph70%30.01 "Hg6 mi
3:51 pm88 °FScattered clouds.9 mph66%30.01 "Hg6 mi
2:52 pm90 °FScattered clouds.12 mph59%30.01 "Hg6 mi
1:56 pm90 °FScattered clouds.12 mph59%30.04 "Hg6 mi
12:52 pm90 °FScattered clouds.12 mph63%30.07 "HgN/A
11:51 am88 °FScattered clouds.7 mph62%30.07 "Hg6 mi
10:50 am88 °FScattered clouds.7 mph59%30.04 "HgN/A
9:50 am86 °FPassing clouds.6 mph66%30.04 "Hg6 mi
8:50 am86 °FPassing clouds.2 mph66%30.04 "Hg6 mi
7:51 am81 °FScattered clouds.5 mph84%30.04 "Hg6 mi
6:54 am77 °FScattered clouds.3 mph94%30.01 "Hg6 mi
5:51 am77 °FPassing clouds.5 mph94%29.98 "Hg6 mi
4:50 am77 °FPassing clouds.5 mph94%29.98 "Hg6 mi
3:51 am77 °FPassing clouds.3 mph94%29.98 "Hg6 mi
2:50 am79 °FPassing clouds.3 mph94%30.01 "Hg6 mi
Weather by CustomWeather, © 2017

See weather overviewHow to use our weather pages